Regional Weather Roundup
Issued by NWS

Home | Current Version | Previous Version | Graphics & Text | Print | Product List | Glossary On
Versions: 1 2 3 4 5 6 7 8 9 10 11 12 13 14 15 16 17 18 19 20 21 22 23 24 25 26 27 28 29 30 31 32 33 34 35 36 37 38 39 40 41 42 43 44 45 46 47 48 49 50
000
ASUS43 KLOT 031412
RWRIL

ILLINOIS REGIONAL WEATHER ROUNDUP
NATIONAL WEATHER SERVICE CHICAGO/ROMEOVILLE IL
900 AM CDT WED JUN 03 2015

NOTE: "FAIR" INDICATES FEW OR NO CLOUDS BELOW 12,000 FEET WITH NO
SIGNIFICANT WEATHER AND/OR OBSTRUCTIONS TO VISIBILITY.

* THESE STATIONS ARE NOT UNDER NWS QUALITY CONTROL. THEY ALSO MAY NOT
  REPORT WEATHER SUCH AS PRECIPITATION OR FOG.

ILZ001-002-007-009-015-016-024-031500-
NORTHWEST ILLINOIS

CITY           SKY/WX    TMP DP  RH WIND       PRES   REMARKS
MOLINE         SUNNY     67  58  72 S8        30.01F
STERLING*      SUNNY     66  57  72 S6        30.05S
SAVANNA*       SUNNY     67  56  67 S6        30.02F
$$

ILZ003-004-008-010-011-017-018-031500-
NORTH CENTRAL ILLINOIS

CITY           SKY/WX    TMP DP  RH WIND       PRES   REMARKS
ROCKFORD       PTSUNNY   65  55  70 S12       30.07F
FREEPORT*      SUNNY     64  56  75 SE10      30.05F
ROCHELLE*      SUNNY     64  55  71 SE13      30.07S
DE KALB*       SUNNY     62  53  73 S9        30.09S
PERU*          SUNNY     64  56  73 S3        30.07S
$$

ILZ005-006-012>014-019>023-031500-
NORTHEAST ILLINOIS

CITY           SKY/WX    TMP DP  RH WIND       PRES   REMARKS
CHICAGO-OHARE  MOSUNNY   63  52  67 S8        30.07F
CHICAGO-MIDWAY MOSUNNY   65  52  62 SW3       30.09F
AURORA         MOSUNNY   65  53  65 S10       30.08F
LANSING*       SUNNY     63  50  63 S6        30.10S
JOLIET*        MOSUNNY   65  56  72 SE6       30.08F
WAUKEGAN       SUNNY     61  51  70 E5        30.09R
DUPAGE AIRPORT MOSUNNY   64  54  69 S12       30.08S
KANKAKEE*      SUNNY     63  56  77 SE7       30.09F
WHEELING       MOSUNNY   64  51  62 SW7       30.10S
MORRIS*        MOSUNNY   64  54  70 E6        30.06S
ROMEOVILLE*    MOSUNNY   64  53  69 S9        30.08F
NORTHERLY ISL    N/A     59  52  77 E2          N/A
$$

LMZ740>746-031500-
SOUTHERN LAKE MICHIGAN

STATION/POSITION SKY/WX   TEMP    WIND        PRES    VSBY  WAVE
                          AIR SEA DIR/SP/G                  HT/PER
                          (F)     (DEG/KT/KT) (MB)    (MI)  (FT/S)
SOUTHERN BUOY              45 39  130/  4/  4 1020.0S         0
HARRISON CRIB              55     140/  6/  6   N/A
BURNHAM HARBOR             59      CALM  /  3   N/A
CALUMET HARBOR             60     170/  5/  8   N/A
BURNS HARBOR               61     180/  7/ 11 1019.6S
MICHIGAN CITY              59     130/ 10/ 11   N/A
MICHIGAN CITY 6N           60 57   CALM  /  2   N/A           1
ST. JOSEPH                 57 55  220/  2/  2   N/A           1
$$

ILZ025>027-034>036-040-047-049-050-058-095>099-031500-
WEST-CENTRAL ILLINOIS

CITY           SKY/WX    TMP DP  RH WIND       PRES   REMARKS
QUINCY         MOSUNNY   64  58  80 S10       30.02S
GALESBURG*     SUNNY     65  58  78 SE7       30.03S
MACOMB*        MOSUNNY   65  59  79 SE9       30.05S
JACKSONVILLE*  CLOUDY    65  58  79 S9        30.05S
PITTSFIELD*    CLOUDY    62  57  84 S7        30.05R
$$

ILZ028>032-037-038-041>044-048-051>054-059>061-031500-
CENTRAL ILLINOIS

CITY           SKY/WX    TMP DP  RH WIND       PRES   REMARKS
PONTIAC        SUNNY     65  59  80 S8        30.08F
BLOOMINGTON    SUNNY     63  59  87 S8        30.08S
DECATUR        MOSUNNY   65  58  78 S7        30.07F
PEORIA         MOSUNNY   66  59  78 S6        30.05S
LACON*         SUNNY     65  57  76 CALM      30.05S
LINCOLN*       MOSUNNY   65  58  77 S3        30.05S
SPRINGFIELD    PTSUNNY   66  58  75 S12       30.06F
TAYLORVILLE    PTSUNNY   63  55  77 S8        30.07F
$$

ILZ033-039-045-046-055>057-062-063-031500-
EAST-CENTRAL ILLINOIS

CITY           SKY/WX    TMP DP  RH WIND       PRES   REMARKS
CHAMPAIGN      MOSUNNY   64  57  78 S6        30.08F
DANVILLE*      SUNNY     62  55  80 SE5       30.07F
RANTOUL*       MOSUNNY   65  58  79 S7        30.08F
MATTOON        SUNNY     64  57  78 S3        30.07F
PARIS*         CLOUDY    61  56  83 SE7       30.10S
$$

ILZ079-100>102-031500-
SOUTHWEST ILLINOIS

CITY           SKY/WX    TMP DP  RH WIND       PRES   REMARKS
ALTON          CLOUDY    63  63 100 SE9       30.06F
BELLEVILLE     CLOUDY    64  62  94 SE6       30.05S
CAHOKIA*       CLOUDY    63  58  83 SE9       30.05F
SPARTA*        CLOUDY    62  58  87 SE6       30.08R
$$

ILZ064>066-069>071-074>076-080>082-084>086-088>090-092>094-031500-
SOUTH-CENTRAL ILLINOIS

CITY           SKY/WX    TMP DP  RH WIND       PRES   REMARKS
CARBONDALE     PTSUNNY   64  56  75 SW3       30.07S
CAIRO*         CLOUDY    66  59  78 E5        30.06S
EFFINGHAM*     CLOUDY    64  57  76 E3        30.09S
MARION         MOSUNNY   66  57  72 MISG      30.08S
MT. VERNON     CLOUDY    64  55  72 SE3       30.09S
CENTRALIA*     PTSUNNY   69  54  58 SE5       30.07F
SALEM*         CLOUDY    65  57  76 SE3       30.08S
METROPOLIS*    MOSUNNY   66  58  76 CALM      30.07S
$$

ILZ067-068-072-073-078-083-087-091-031500-
SOUTHEAST ILLINOIS

CITY           SKY/WX    TMP DP  RH WIND       PRES   REMARKS
LAWRENCEVILLE  CLOUDY    61  55  81 SE6       30.09S HAZE
FLORA*         SUNNY     62  58  87 SE3       30.09S FOG
FAIRFIELD*     CLOUDY    62  57  84 CALM      30.08S HAZE
HARRISBURG*    CLOUDY    64  59  85 E3        30.08F HAZE
ROBINSON*      CLOUDY    59  55  85 SE3       30.11S FOG
CARMI*         SUNNY     64  54  68 E5        30.07F
$$

ABBREVIATIONS USED IN REMARKS
   TC - TEMPERATURE IN CELSIUS
  WCI - WIND CHILL INDEX
   HX - HEAT INDEX
  VSB - VISIBILITY
$$



USA.gov is the U.S. government's official web portal to all federal, state and local government web resources and services.